SKYTERRA 1

Last updated on Thu Nov 21 2024 00:02:41 GMT+0000 (Coordinated Universal Time)

1 37218U 10061A 24325.31657227 -.00000117 00000+0 00000+0 0 9996 2 37218 3.9258 49.5573 0005627 196.2983 186.6454 1.00272338 51445
UTC large
Height (km)
Speed (km/s)
/
Latitude / Longitude
Inclination (degrees)
Orbital Period (minutes)
Azimuth
Elevation
Range (km)
Doppler Factor

Next 0 passes for location: London (51.5072 / 0.1276)

Sorry there are no passes over London.